Time,TemperatureF,DewpointF,PressureIn,WindDirection,WindDirectionDegrees,WindSpeedMPH,WindSpeedGustMPH,Humidity,HourlyPrecipIn,Conditions,Clouds,dailyrainin,SolarRadiationWatts/m^2,SoftwareType,DateUTC
2013-06-29 00:01:00,62.0,59.0,-100.00,North,10,3.0,5.0,90,0.00,,,0.09,0.000000,,2013-06-29 05:01:00,
2013-06-29 00:11:00,62.0,59.0,-100.00,North,10,3.0,5.0,90,0.00,,,0.09,0.000000,,2013-06-29 05:11:00,
2013-06-29 00:42:00,62.0,59.0,-100.00,NNE,28,3.0,8.0,90,0.00,,,0.06,0.000000,,2013-06-29 05:42:00,
2013-06-29 00:52:00,62.0,59.0,-100.00,NNE,28,3.0,8.0,90,0.00,,,0.06,0.000000,,2013-06-29 05:52:00,
2013-06-29 01:01:00,62.0,59.0,-100.00,NNE,28,3.0,8.0,90,0.00,,,0.06,0.000000,,2013-06-29 06:01:00,
2013-06-29 01:12:00,62.0,59.0,-100.00,NNE,28,3.0,8.0,90,0.00,,,0.06,0.000000,,2013-06-29 06:12:00,
2013-06-29 01:43:00,61.0,57.0,-100.00,NNE,20,4.0,11.0,87,0.00,,,0.06,0.000000,,2013-06-29 06:43:00,
2013-06-29 01:53:00,61.0,57.0,-100.00,NNE,20,4.0,11.0,87,0.00,,,0.06,0.000000,,2013-06-29 06:53:00,
2013-06-29 02:02:00,61.0,57.0,-100.00,NNE,20,4.0,11.0,87,0.00,,,0.06,0.000000,,2013-06-29 07:02:00,
2013-06-29 02:12:00,61.0,57.0,-100.00,NNE,20,4.0,11.0,87,0.00,,,0.06,0.000000,,2013-06-29 07:12:00,
2013-06-29 02:43:00,60.0,57.0,-100.00,NNE,21,3.0,8.0,90,0.00,,,0.06,0.000000,,2013-06-29 07:43:00,
2013-06-29 02:53:00,60.0,57.0,-100.00,NNE,21,3.0,8.0,90,0.00,,,0.06,0.000000,,2013-06-29 07:53:00,
2013-06-29 03:01:00,60.0,57.0,-100.00,NNE,21,3.0,8.0,90,0.00,,,0.06,0.000000,,2013-06-29 08:01:00,
2013-06-29 03:12:00,60.0,57.0,-100.00,NNE,21,3.0,8.0,90,0.00,,,0.06,0.000000,,2013-06-29 08:12:00,
2013-06-29 03:43:00,58.0,57.0,-100.00,NNE,24,3.0,7.0,97,0.08,,,0.14,0.000000,,2013-06-29 08:43:00,
2013-06-29 03:52:00,58.0,57.0,-100.00,NNE,24,3.0,7.0,97,0.08,,,0.14,0.000000,,2013-06-29 08:52:00,
2013-06-29 04:02:00,58.0,57.0,-100.00,NNE,24,3.0,7.0,97,0.08,,,0.14,0.000000,,2013-06-29 09:02:00,
2013-06-29 04:12:00,58.0,57.0,-100.00,NNE,24,3.0,7.0,97,0.08,,,0.14,0.000000,,2013-06-29 09:12:00,
2013-06-29 04:42:00,58.0,57.0,-100.00,NE,41,2.0,7.0,97,0.01,,,0.15,0.000000,,2013-06-29 09:42:00,
2013-06-29 04:53:00,58.0,57.0,-100.00,NE,41,2.0,7.0,97,0.01,,,0.15,0.000000,,2013-06-29 09:53:00,
2013-06-29 05:01:00,58.0,57.0,-100.00,NE,41,2.0,7.0,97,0.01,,,0.15,0.000000,,2013-06-29 10:01:00,
2013-06-29 05:11:00,58.0,57.0,-100.00,NE,41,2.0,7.0,97,0.01,,,0.15,0.000000,,2013-06-29 10:11:00,
2013-06-29 05:43:00,58.0,57.0,-100.00,North,10,2.0,8.0,96,0.00,,,0.15,0.000000,,2013-06-29 10:43:00,
2013-06-29 05:53:00,58.0,57.0,-100.00,North,10,2.0,8.0,96,0.00,,,0.15,0.000000,,2013-06-29 10:53:00,
2013-06-29 06:02:00,58.0,57.0,-100.00,North,10,2.0,8.0,96,0.00,,,0.15,0.000000,,2013-06-29 11:02:00,
2013-06-29 06:11:00,58.0,57.0,-100.00,North,10,2.0,8.0,96,0.00,,,0.15,0.000000,,2013-06-29 11:11:00,
2013-06-29 06:43:00,58.0,57.0,-100.00,NNE,14,1.0,7.0,96,0.00,,,0.13,6.000000,,2013-06-29 11:43:00,
2013-06-29 06:53:00,58.0,57.0,-100.00,NNE,14,1.0,7.0,96,0.00,,,0.13,6.000000,,2013-06-29 11:53:00,
2013-06-29 07:02:00,58.0,57.0,-100.00,NNE,14,1.0,7.0,96,0.00,,,0.13,6.000000,,2013-06-29 12:02:00,
2013-06-29 07:12:00,58.0,57.0,-100.00,NNE,14,1.0,7.0,96,0.00,,,0.13,6.000000,,2013-06-29 12:12:00,
2013-06-29 07:43:00,58.0,57.0,-100.00,North,9,2.0,7.0,95,0.00,,,0.13,25.000000,,2013-06-29 12:43:00,
2013-06-29 07:53:00,58.0,57.0,-100.00,North,9,2.0,7.0,95,0.00,,,0.13,25.000000,,2013-06-29 12:53:00,
2013-06-29 08:02:00,58.0,57.0,-100.00,North,9,2.0,7.0,95,0.00,,,0.13,25.000000,,2013-06-29 13:02:00,
2013-06-29 08:11:00,58.0,57.0,-100.00,North,9,2.0,7.0,95,0.00,,,0.13,25.000000,,2013-06-29 13:11:00,
2013-06-29 08:43:00,60.0,58.0,-100.00,North,6,3.0,8.0,92,0.01,,,0.14,98.000000,,2013-06-29 13:43:00,
2013-06-29 08:53:00,60.0,58.0,-100.00,North,6,3.0,8.0,92,0.01,,,0.14,98.000000,,2013-06-29 13:53:00,
2013-06-29 09:02:00,60.0,58.0,-100.00,North,6,3.0,8.0,92,0.01,,,0.14,98.000000,,2013-06-29 14:02:00,
2013-06-29 09:12:00,60.0,58.0,-100.00,North,6,3.0,8.0,92,0.01,,,0.14,98.000000,,2013-06-29 14:12:00,
2013-06-29 09:45:00,63.0,58.0,-100.00,NNW,340,3.0,9.0,85,0.00,,,0.14,247.000000,,2013-06-29 14:45:00,
2013-06-29 09:53:00,63.0,58.0,-100.00,NNW,340,3.0,9.0,85,0.00,,,0.14,247.000000,,2013-06-29 14:53:00,
2013-06-29 10:01:00,63.0,58.0,-100.00,NNW,340,3.0,9.0,85,0.00,,,0.14,247.000000,,2013-06-29 15:01:00,
2013-06-29 10:11:00,63.0,58.0,-100.00,NNW,340,3.0,9.0,85,0.00,,,0.14,247.000000,,2013-06-29 15:11:00,
2013-06-29 10:42:00,65.0,59.0,-100.00,North,358,4.0,10.0,80,0.00,,,0.14,350.000000,,2013-06-29 15:42:00,
2013-06-29 10:53:00,65.0,59.0,-100.00,North,358,4.0,10.0,80,0.00,,,0.14,350.000000,,2013-06-29 15:53:00,
2013-06-29 11:02:00,65.0,59.0,-100.00,North,358,4.0,10.0,80,0.00,,,0.14,350.000000,,2013-06-29 16:02:00,
2013-06-29 11:12:00,65.0,59.0,-100.00,North,358,4.0,10.0,80,0.00,,,0.14,350.000000,,2013-06-29 16:12:00,
2013-06-29 11:34:00,69.0,58.0,-100.00,North,357,6.0,15.0,68,0.00,,,0.14,636.000000,,2013-06-29 16:34:00,
2013-06-29 11:43:00,69.0,58.0,-100.00,North,357,6.0,15.0,68,0.00,,,0.14,636.000000,,2013-06-29 16:43:00,
2013-06-29 11:53:00,69.0,58.0,-100.00,North,357,6.0,15.0,68,0.00,,,0.14,636.000000,,2013-06-29 16:53:00,
2013-06-29 12:01:00,69.0,58.0,-100.00,North,357,6.0,15.0,68,0.00,,,0.14,636.000000,,2013-06-29 17:01:00,
2013-06-29 12:12:00,69.0,58.0,-100.00,North,357,6.0,15.0,68,0.00,,,0.14,636.000000,,2013-06-29 17:12:00,
2013-06-29 12:34:00,70.0,56.0,-100.00,NNE,22,6.0,13.0,62,0.00,,,0.14,715.000000,,2013-06-29 17:34:00,
2013-06-29 12:42:00,70.0,56.0,-100.00,NNE,22,6.0,13.0,62,0.00,,,0.14,715.000000,,2013-06-29 17:42:00,
2013-06-29 12:53:00,70.0,56.0,-100.00,NNE,22,6.0,13.0,62,0.00,,,0.14,715.000000,,2013-06-29 17:53:00,
2013-06-29 13:01:00,70.0,56.0,-100.00,NNE,22,6.0,13.0,62,0.00,,,0.14,715.000000,,2013-06-29 18:01:00,
2013-06-29 13:12:00,70.0,56.0,-100.00,NNE,22,6.0,13.0,62,0.00,,,0.14,715.000000,,2013-06-29 18:12:00,
2013-06-29 13:43:00,72.0,56.0,-100.00,NNE,22,5.0,16.0,58,0.00,,,0.14,804.000000,,2013-06-29 18:43:00,
2013-06-29 13:53:00,72.0,56.0,-100.00,NNE,22,5.0,16.0,58,0.00,,,0.14,804.000000,,2013-06-29 18:53:00,
2013-06-29 14:01:00,72.0,56.0,-100.00,NNE,22,5.0,16.0,58,0.00,,,0.14,804.000000,,2013-06-29 19:01:00,
2013-06-29 14:12:00,72.0,56.0,-100.00,NNE,22,5.0,16.0,58,0.00,,,0.14,804.000000,,2013-06-29 19:12:00,
2013-06-29 14:43:00,73.0,54.0,-100.00,North,4,6.0,16.0,51,0.00,,,0.14,717.000000,,2013-06-29 19:43:00,
2013-06-29 14:54:00,73.0,54.0,-100.00,North,4,6.0,16.0,51,0.00,,,0.14,717.000000,,2013-06-29 19:54:00,
2013-06-29 15:02:00,73.0,54.0,-100.00,North,4,6.0,16.0,51,0.00,,,0.14,717.000000,,2013-06-29 20:02:00,
2013-06-29 15:11:00,73.0,54.0,-100.00,North,4,6.0,16.0,51,0.00,,,0.14,717.000000,,2013-06-29 20:11:00,
2013-06-29 15:33:00,72.0,52.0,-100.00,NNE,17,7.0,15.0,49,0.00,,,0.14,673.000000,,2013-06-29 20:33:00,
2013-06-29 15:43:00,72.0,52.0,-100.00,NNE,17,7.0,15.0,49,0.00,,,0.14,673.000000,,2013-06-29 20:43:00,
2013-06-29 15:52:00,72.0,52.0,-100.00,NNE,17,7.0,15.0,49,0.00,,,0.14,673.000000,,2013-06-29 20:52:00,
2013-06-29 16:02:00,72.0,52.0,-100.00,NNE,17,7.0,15.0,49,0.00,,,0.14,673.000000,,2013-06-29 21:02:00,
2013-06-29 16:11:00,72.0,52.0,-100.00,NNE,17,7.0,15.0,49,0.00,,,0.14,673.000000,,2013-06-29 21:11:00,
2013-06-29 16:42:00,71.0,52.0,-100.00,NNE,21,6.0,16.0,51,0.00,,,0.10,492.000000,,2013-06-29 21:42:00,
2013-06-29 16:52:00,71.0,52.0,-100.00,NNE,21,6.0,16.0,51,0.00,,,0.10,492.000000,,2013-06-29 21:52:00,
2013-06-29 17:01:00,71.0,52.0,-100.00,NNE,21,6.0,16.0,51,0.00,,,0.10,492.000000,,2013-06-29 22:01:00,
2013-06-29 17:11:00,71.0,52.0,-100.00,NNE,21,6.0,16.0,51,0.00,,,0.10,492.000000,,2013-06-29 22:11:00,
2013-06-29 17:43:00,72.0,49.0,-100.00,NNE,25,6.0,15.0,44,0.00,,,0.10,448.000000,,2013-06-29 22:43:00,
2013-06-29 17:53:00,72.0,49.0,-100.00,NNE,25,6.0,15.0,44,0.00,,,0.10,448.000000,,2013-06-29 22:53:00,
2013-06-29 18:02:00,72.0,49.0,-100.00,NNE,25,6.0,15.0,44,0.00,,,0.10,448.000000,,2013-06-29 23:02:00,
2013-06-29 18:12:00,72.0,49.0,-100.00,NNE,25,6.0,15.0,44,0.00,,,0.10,448.000000,,2013-06-29 23:12:00,
2013-06-29 18:34:00,69.0,48.0,-100.00,NNE,26,5.0,17.0,47,0.00,,,0.10,326.000000,,2013-06-29 23:34:00,
2013-06-29 18:43:00,69.0,48.0,-100.00,NNE,26,5.0,17.0,47,0.00,,,0.10,326.000000,,2013-06-29 23:43:00,
2013-06-29 18:53:00,69.0,48.0,-100.00,NNE,26,5.0,17.0,47,0.00,,,0.10,326.000000,,2013-06-29 23:53:00,
2013-06-29 19:02:00,69.0,48.0,-100.00,NNE,26,5.0,17.0,47,0.00,,,0.10,326.000000,,2013-06-30 00:02:00,
2013-06-29 19:12:00,69.0,48.0,-100.00,NNE,26,5.0,17.0,47,0.00,,,0.10,326.000000,,2013-06-30 00:12:00,
2013-06-29 20:33:00,62.0,47.0,-100.00,NNW,346,1.0,6.0,57,-99.99,,,0.10,74.000000,,2013-06-30 01:33:00,
2013-06-29 20:44:00,62.0,47.0,-100.00,NNW,346,1.0,6.0,57,-99.99,,,0.10,74.000000,,2013-06-30 01:44:00,
2013-06-29 20:53:00,62.0,47.0,-100.00,NNW,346,1.0,6.0,57,-99.99,,,0.10,74.000000,,2013-06-30 01:53:00,
2013-06-29 21:02:00,62.0,47.0,-100.00,NNW,346,1.0,6.0,57,-99.99,,,0.10,74.000000,,2013-06-30 02:02:00,
2013-06-29 21:11:00,62.0,47.0,-100.00,NNW,346,1.0,6.0,57,-99.99,,,0.10,74.000000,,2013-06-30 02:11:00,
2013-06-29 21:34:00,57.0,45.0,-100.00,WNW,293,0.0,5.0,65,0.00,,,0.10,14.000000,,2013-06-30 02:34:00,
2013-06-29 21:43:00,57.0,45.0,-100.00,WNW,293,0.0,5.0,65,0.00,,,0.10,14.000000,,2013-06-30 02:43:00,
2013-06-29 21:53:00,57.0,45.0,-100.00,WNW,293,0.0,5.0,65,0.00,,,0.10,14.000000,,2013-06-30 02:53:00,
2013-06-29 22:01:00,57.0,45.0,-100.00,WNW,293,0.0,5.0,65,0.00,,,0.10,14.000000,,2013-06-30 03:01:00,
2013-06-29 22:12:00,57.0,45.0,-100.00,WNW,293,0.0,5.0,65,0.00,,,0.10,14.000000,,2013-06-30 03:12:00,
2013-06-29 22:43:00,55.0,43.0,-100.00,NW,324,2.0,6.0,65,0.00,,,0.10,0.000000,,2013-06-30 03:43:00,
2013-06-29 22:53:00,55.0,43.0,-100.00,NW,324,2.0,6.0,65,0.00,,,0.10,0.000000,,2013-06-30 03:53:00,
2013-06-29 23:01:00,55.0,43.0,-100.00,NW,324,2.0,6.0,65,0.00,,,0.10,0.000000,,2013-06-30 04:01:00,
2013-06-29 23:12:00,55.0,43.0,-100.00,NW,324,2.0,6.0,65,0.00,,,0.10,0.000000,,2013-06-30 04:12:00,
2013-06-29 23:33:00,55.0,43.0,-100.00,NNW,338,3.0,7.0,64,0.00,,,0.10,0.000000,,2013-06-30 04:33:00,
2013-06-29 23:43:00,55.0,43.0,-100.00,NNW,338,3.0,7.0,64,0.00,,,0.10,0.000000,,2013-06-30 04:43:00,
2013-06-29 23:53:00,55.0,43.0,-100.00,NNW,338,3.0,7.0,64,0.00,,,0.10,0.000000,,2013-06-30 04:53:00,